Home > Weather > Adak > Past weeks

Flag for U.S.A. Weather for the Past 2 Weeks in Adak, Alaska, U.S.A.

Now
34 °F

Mostly cloudy.


Feels Like: 20 °F
Forecast: 33 / 36 °F
Wind: 28 mph from East

Location: Adak

Current Time: Feb 7, 2016 at 11:05:47 PM

Latest Report: Feb 7, 2016 at 10:36 PM


Visibility: 5 mi

Pressure: 29.16 "Hg

Humidity: 60%

Dew point: 21 °F

Location of AdakLocation

Historic Weather in Adak — Graph

°F

Adak Temperature Yesterday

Maximum temperature yesterday: 34 °F (at 1:16 PM)
Minimum temperature yesterday: 28 °F (at 10:56 AM)
Average temperature yesterday: 31 °F

High & Low Weather Summary for the Past Weeks

 TemperatureHumidityPressure
High36 °F (Jan 23, 9:16 PM)81% (Jan 29, 12:36 AM)29.75 "Hg (Jan 29, 12:36 AM)
Low9 °F (Feb 2, 7:36 AM)43% (Feb 6, 7:56 PM)28.56 "Hg (Jan 30, 9:16 AM)
Average29 °F64%29.15 "Hg
* Reported Jan 23 9:16 PM — Feb 7 9:56 PM, Adak, Weather by CustomWeather, © 2016

Note: Actual official high and low records may vary slightly from our data, if they occured in-between our weather recording intervals... More about our weather records

Advertising

Adak Weather History for the Previous 24 Hours

 ConditionsComfort  
Time TempWeatherWind HumidityBarometerVisibility
9:56 PM
Sun, Feb 7
36 °FMostly cloudy.22 mph52%29.18 "Hg10 mi
9:36 PM34 °FMostly cloudy.24 mph56%29.19 "Hg10 mi
9:16 PM34 °FMostly cloudy.25 mph56%29.20 "Hg10 mi
8:56 PM34 °FMostly cloudy.22 mph56%29.22 "Hg10 mi
8:36 PM34 °FMostly cloudy.22 mph56%29.22 "Hg10 mi
8:16 PM36 °FMostly cloudy.23 mph52%29.23 "Hg10 mi
7:56 PM36 °FMostly cloudy.25 mph56%29.24 "Hg10 mi
7:36 PM36 °FMostly cloudy.23 mph52%29.25 "Hg10 mi
7:16 PM34 °FMostly cloudy.20 mph60%29.26 "Hg10 mi
6:56 PM36 °FOvercast.22 mph56%29.27 "Hg10 mi
6:36 PM34 °FOvercast.20 mph60%29.27 "Hg9 mi
6:16 PM36 °FMostly cloudy.20 mph52%29.28 "Hg10 mi
5:36 PM36 °FMostly cloudy.18 mph52%29.29 "Hg10 mi
4:56 PM34 °FMostly cloudy.16 mph56%29.31 "Hg10 mi
4:36 PM34 °FOvercast.17 mph56%29.31 "Hg10 mi
3:56 PM34 °FMostly cloudy.17 mph56%29.33 "Hg10 mi
3:16 PM34 °FMostly cloudy.14 mph60%29.36 "Hg10 mi
2:56 PM34 °FOvercast.15 mph56%29.38 "Hg10 mi
2:36 PM34 °FMore clouds than sun.17 mph56%29.39 "Hg10 mi
1:56 PM36 °FOvercast.15 mph52%29.43 "Hg10 mi
1:36 PM36 °FOvercast.14 mph52%29.44 "Hg10 mi
12:56 PM36 °FOvercast.16 mph52%29.47 "Hg10 mi
12:36 PM34 °FOvercast.17 mph60%29.48 "Hg10 mi
11:56 AM32 °FOvercast.9 mph64%29.51 "Hg10 mi
11:36 AM28 °FOvercast.3 mph69%29.52 "Hg10 mi
11:16 AM27 °FOvercast.3 mph74%29.54 "Hg10 mi
10:56 AM25 °FOvercast.No wind74%29.54 "Hg10 mi
10:36 AM27 °FMostly cloudy.No wind74%29.55 "Hg10 mi
10:16 AM23 °FOvercast.No wind74%29.57 "Hg10 mi
9:56 AM23 °FMostly cloudy.No wind63%29.58 "Hg10 mi
9:36 AM21 °FPartly sunny.No wind74%29.60 "Hg10 mi
9:16 AM23 °FBroken clouds.No wind74%29.61 "Hg8 mi
8:56 AM25 °FMore clouds than sun.3 mph69%29.62 "Hg10 mi
8:36 AM25 °FOvercast.5 mph59%29.61 "Hg10 mi
8:16 AM27 °FOvercast.No wind69%29.62 "Hg10 mi
7:56 AM19 °FPassing clouds.3 mph68%29.63 "Hg10 mi
7:36 AM18 °FPassing clouds.No wind62%29.64 "Hg10 mi
7:16 AM18 °FPassing clouds.No wind73%29.65 "Hg10 mi
6:56 AM18 °FPassing clouds.No wind68%29.67 "Hg10 mi
6:36 AM16 °FPassing clouds.No wind73%29.68 "Hg10 mi
6:16 AM18 °FPassing clouds.No wind68%29.69 "Hg10 mi
5:36 AM16 °FClear.No wind67%29.71 "Hg10 mi
5:16 AM19 °FClear.No wind68%29.71 "Hg10 mi
4:56 AM19 °FClear.No wind63%29.71 "Hg10 mi
4:36 AM23 °FPassing clouds.No wind63%29.71 "Hg10 mi
4:16 AM25 °FPassing clouds.No wind63%29.72 "Hg10 mi
3:56 AM25 °FPassing clouds.No wind59%29.73 "Hg10 mi
3:36 AM25 °FOvercast.3 mph59%29.73 "Hg10 mi
3:16 AM27 °FOvercast.6 mph64%29.74 "Hg10 mi
2:56 AM25 °FOvercast.7 mph63%29.73 "Hg10 mi
2:36 AM28 °FOvercast.5 mph59%29.73 "Hg10 mi
2:16 AM30 °FOvercast.9 mph55%29.74 "Hg10 mi
1:56 AM25 °FOvercast.8 mph59%29.74 "Hg10 mi
1:36 AM27 °FOvercast.No wind69%29.74 "Hg10 mi
1:16 AM30 °FPartly cloudy.6 mph59%29.75 "Hg10 mi
12:56 AM28 °FMostly cloudy.5 mph64%29.75 "Hg10 mi
12:36 AM30 °FMostly cloudy.14 mph55%29.75 "Hg6 mi
12:16 AM28 °FMostly cloudy.7 mph59%29.75 "Hg10 mi
11:56 PM
Sat, Feb 6
28 °FMostly cloudy.8 mph64%29.75 "Hg10 mi
11:36 PM30 °FMostly cloudy.10 mph64%29.75 "Hg10 mi
11:16 PM30 °FOvercast.13 mph59%29.75 "Hg10 mi
Weather by CustomWeather, © 2016

See weather overviewHow to use our weather pages